Location: Oshawa
(43.9000°N, 78.8670°W)
Time: 05:26:11
(UTC-04:00)

SPOT 5 - Visible Passes

Search period start: 16 September 2014 00:00
Search period end: 26 September 2014 00:00
Orbit: 824 x 826 km, 98.6° (Epoch: 16 September)

Date Brightness Start Highest point End Pass type
(mag) Time Alt. Az. Time Alt. Az. Time Alt. Az.
16 Sep 3.4 21:56:36 54° NE 21:56:36 54° NE 22:01:16 10° N visible
16 Sep 5.4 23:38:04 18° WNW 23:38:04 18° WNW 23:40:26 10° NW visible
17 Sep 3.8 21:37:08 39° ENE 21:37:08 39° ENE 21:41:44 10° N visible
17 Sep 5.0 23:18:36 25° WNW 23:18:36 25° WNW 23:21:41 10° NW visible
18 Sep 4.2 21:17:41 28° ENE 21:17:41 28° ENE 21:22:04 10° N visible
18 Sep 4.6 22:59:09 34° WNW 22:59:09 34° WNW 23:02:40 10° NNW visible
19 Sep 4.6 20:58:14 20° ENE 20:58:27 20° ENE 21:02:14 10° NNE visible
19 Sep 4.1 22:39:42 44° NW 22:39:42 44° NW 22:43:30 10° NNW visible
20 Sep 4.9 20:38:47 14° ENE 20:39:23 14° ENE 20:42:04 10° NNE visible
20 Sep 3.8 22:20:15 51° NNW 22:20:15 51° NNW 22:24:12 10° NNW visible
21 Sep 6.0 00:01:43 10° WNW 00:01:43 10° WNW 00:01:44 10° WNW visible
21 Sep 3.7 22:00:48 47° NNE 22:00:48 47° NNE 22:04:47 10° N visible
21 Sep 5.7 23:42:16 15° WNW 23:42:16 15° WNW 23:43:46 10° NW visible
22 Sep 3.9 21:41:21 38° NE 21:41:21 38° NE 21:45:17 10° N visible
22 Sep 5.4 23:22:49 20° WNW 23:22:49 20° WNW 23:25:05 10° NW visible
23 Sep 4.3 21:21:54 28° NE 21:21:54 28° NE 21:25:38 10° N visible
23 Sep 5.0 23:03:22 27° NW 23:03:22 27° NW 23:06:07 10° NNW visible
24 Sep 4.6 21:02:26 21° NE 21:02:26 21° NE 21:05:51 10° NNE visible
24 Sep 4.6 22:43:54 33° NW 22:43:54 33° NW 22:46:58 10° NNW visible
25 Sep 4.9 20:42:59 15° NE 20:42:59 15° NE 20:45:46 10° NNE visible
25 Sep 4.3 22:24:27 38° NNW 22:24:27 38° NNW 22:27:41 10° NNW visible
